This demonstration page uses our WeatherBlox Daily Observations layout. Learn more.

Left ArrowRight Arrow

41.55636, -103.73856

Hourly Observations for December 18, 2021

Temp ( °F °C ) Dew Point ( °F °C ) Humidity (%) Winds ( mph kmh ) Pressure ( in mb ) Visibility ( mi km ) Precip ( " mm )
12:58 am 00:58 Clear 6 -14.6 1 -17.1 81 81 W 12 19 30.42 1030 10 16 0.00 0.00
1:58 am 01:58 Clear 5 -14.9 0 -18 77 77 WSW 7 11 30.44 1031 10 16 0.00 0.00
2:58 am 02:58 Clear 10 -12.3 3 -16.1 74 74 NNW 3 6 30.41 1030 10 16 0.00 0.00
3:58 am 03:58 Clear 5 -14.8 1 -17.1 83 83 W 5 7 30.44 1031 10 16 0.00 0.00
4:58 am 04:58 Clear 4 -15.3 0 -17.9 81 81 WSW 7 11 30.45 1031 10 16 0.00 0.00
5:58 am 05:58 Clear 6 -14.6 0 -18 76 76 SW 7 11 30.48 1032 10 16 0.00 0.00
6:58 am 06:58 Clear 5 -14.8 0 -17.6 79 79 SW 8 13 30.49 1033 10 16 0.00 0.00
7:58 am 07:58 Sunny 8 -13.5 2 -16.4 79 79 WSW 5 7 30.48 1032 10 16 0.00 0.00
8:58 am 08:58 Sunny 18 -8 12 -11.1 79 79 SW 6 9 30.45 1031 10 16 0.00 0.00
9:58 am 09:58 Sunny 25 -3.7 11 -11.5 55 55 W 5 7 30.43 1030 10 16 0.00 0.00
10:58 am 10:58 Sunny 30 -1.3 12 -11.2 47 47 W 9 15 30.40 1029 10 16 0.00 0.00
11:58 am 11:58 Sunny 33 0.6 10 -12.1 38 38 W 9 15 30.34 1028 10 16 0.00 0.00
12:58 pm 12:58 Sunny 35 1.9 9 -12.8 33 33 NW 10 17 30.31 1026 10 16 0.00 0.00
1:58 pm 13:58 Sunny 38 3.3 10 -12.1 32 32 WNW 9 15 30.29 1026 10 16 0.00 0.00
2:58 pm 14:58 Sunny 39 4.1 8 -13.3 27 27 NW 8 13 30.24 1024 10 16 0.00 0.00
3:58 pm 15:58 Sunny 36 2.2 8 -13.5 31 31 SW 13 20 30.26 1025 10 16 0.00 0.00
4:58 pm 16:58 Clear 28 -2.3 6 -14.5 39 39 SSW 13 20 30.29 1026 10 16 0.00 0.00
5:58 pm 17:58 Clear 28 -2.1 4 -15.5 35 35 SSW 17 28 30.25 1025 10 16 0.00 0.00
6:58 pm 18:58 Clear 26 -3.4 5 -15.1 40 40 SSW 24 39 30.24 1024 10 16 0.00 0.00
7:58 pm 19:58 Clear 27 -2.9 5 -15 39 39 SSW 22 35 30.23 1024 10 16 0.00 0.00
8:58 pm 20:58 Clear 26 -3.2 5 -15 40 40 SW 16 26 30.19 1022 10 16 0.00 0.00
9:58 pm 21:58 Clear 28 -2.5 3 -16 35 35 SW 12 19 30.15 1021 10 16 0.00 0.00
10:58 pm 22:58 Clear 25 -3.9 4 -15.7 40 40 SW 15 24 30.14 1021 10 16 0.00 0.00
11:58 pm 23:58 Clear 26 -3.2 2 -16.5 35 35 SSW 13 20 30.10 1019 10 16 0.00 0.00

Powered by AerisWeather